Hourly Data Report for November 01, 2017

All times are specified in Local Standard Time (LST). Add 1 hour to adjust for Daylight Saving Time where and when it is observed.

MAYO A
YUKON TERRITORY

63°36'59.000" N
135°52'06.000" W
503.80 m
2100701
71965
YMA

Download Data

Hourly Data (November 2017)
Hourly Data Report for November 1, 2017
Temp Definition
°C
Dew Point Temp Definition
°C
Rel Hum Definition
%
Wind Dir Definition
10's deg

Wind Spd Definition
km/h
Visibility Definition
km
Stn Press Definition
kPa
Hmdx Definition


Wind Chill Definition


Weather Definition


TIME
00:00 Legend Double Dagger -12.1 -13.5 89 28 3 32.2 96.86   -14 LegendNANA
01:00 Legend Double Dagger -12.8 -14.2 89 36 2 32.2 96.89   -14 Mainly Clear
02:00 Legend Double Dagger -12.8 -14.2 89 36 2 32.2 96.93   -14 LegendNANA
03:00 Legend Double Dagger -13.4 -15.0 88 27 3 32.2 96.96   -15 LegendNANA
04:00 Legend Double Dagger -14.3 -16.0 87 30 4 32.2 96.97   -17 Clear
05:00 Legend Double Dagger -15.0 -16.9 86 25 3 32.2 97.02   -17 LegendNANA
06:00 Legend Double Dagger -13.4 -15.1 87 25 5 32.2 97.08   -17 LegendNANA
07:00 Legend Double Dagger -15.2 -17.1 86 29 3 32.2 97.14   -17 Clear
08:00 Legend Double Dagger -14.1 -15.7 87 26 4 32.2 97.21   -17 LegendNANA
09:00 Legend Double Dagger -15.6 -17.6 85 3 6 32.2 97.28   -20 LegendNANA
10:00 Legend Double Dagger -14.0 -15.8 87 36 3 32.2 97.35   -16 Mainly Clear
11:00 Legend Double Dagger -14.2 -15.9 86 21 4 32.2 97.39   -17 LegendNANA
12:00 Legend Double Dagger -12.3 -13.9 88 36 3 32.2 97.46   -14 LegendNANA
13:00 Legend Double Dagger -8.7 -10.0 90 22 5 32.2 97.54   -11 Mainly Clear
14:00 Legend Double Dagger -7.7 -8.9 91 0 1 32.2 97.56   -8 LegendNANA
15:00 Legend Double Dagger -7.8 -9.0 91 36 1 32.2 97.61   -8 LegendNANA
16:00 Legend Double Dagger -9.2 -10.3 92 36 1 32.2 97.65   -10 Mainly Clear
17:00 Legend Double Dagger -9.1 -10.1 93 26 4 32.2 97.69   -11 LegendNANA
18:00 Legend Double Dagger -11.3 -13.0 88 36 2 32.2 97.75   -13 LegendNANA
19:00 Legend Double Dagger -10.8 -12.1 90 36 2 32.2 97.75   -12 Mostly Cloudy
20:00 Legend Double Dagger -12.4 -13.9 89 30 4 32.2 97.73   -15 LegendNANA
21:00 Legend Double Dagger -13.8 -15.2 89 27 7 32.2 97.74   -18 LegendNANA
22:00 Legend Double Dagger -13.9 -15.6 87 9 4 32.2 97.76   -17 Mainly Clear
23:00 Legend Double Dagger -11.6 -13.1 89 34 3 32.2 97.78   -13 LegendNANA

Notes on Data Quality.

Legend

  • E = Estimated
  • M = Missing
  • NA = Not Available
  • ‡ = Partner data that is not subject to review by the National Climate Archives
Date modified: